Home   Weather   Saint-Jérôme   Past weeks

Flag for Canada Past Weather in Saint-Jérôme, Quebec, Canada — Yesterday and Last 2 Weeks

Now
34 °F

Overcast.


Feels Like: 31 °F
Forecast: 28 / 35 °F
Wind: 3 mph from East

Location: Montreal / Mirabel

Current Time: Jan 20, 2017 at 9:11:21 pm

Latest Report: Jan 20, 2017 at 8:00 pm


Visibility: 25 mi

Pressure: 29.87 "Hg

Humidity: 87%

Dew Point: 30 °F

Location of Saint-JérômeLocation

Past Weather in Saint-Jérôme — Graph

°F

Saint-Jérôme Temperature Yesterday

Maximum temperature yesterday: 34 °F (at 1:00 pm)
Minimum temperature yesterday: 27 °F (at 12:00 am)
Average temperature yesterday: 32 °F

High & Low Weather Summary for the Past Weeks

 TemperatureHumidityPressure
High39 °F (Jan 11, 5:00 am)100% (Jan 11, 4:00 am)30.81 "Hg (Jan 11, 4:00 am)
Low-17 °F (Jan 9, 8:00 am)41% (Jan 13, 2:00 pm)29.59 "Hg (Jan 11, 5:00 am)
Average18 °F84%30.18 "Hg
* Reported Jan 5 8:00 pm — Jan 20 8:00 pm, Saint-Jérôme, Weather by CustomWeather, © 2017

Note: Actual official high and low records may vary slightly from our data, if they occured in-between our weather recording intervals... More about our weather records

Advertising

Saint-Jérôme Weather History for the Previous 24 Hours

Scroll right to see more
 ConditionsComfort  
Time TempWeatherWind HumidityBarometerVisibility
8:00 pm
Fri, Jan 20
34 °FOvercast.3 mph87%29.87 "Hg25 mi
7:00 pm34 °FOvercast.3 mph81%29.88 "Hg25 mi
6:00 pm34 °FOvercast.5 mph87%29.88 "Hg25 mi
5:00 pm34 °FOvercast.6 mph81%29.89 "Hg25 mi
4:00 pm34 °FOvercast.7 mph81%29.89 "Hg25 mi
3:00 pm36 °FOvercast.8 mph75%29.90 "Hg25 mi
2:00 pm36 °FOvercast.9 mph75%29.90 "Hg25 mi
1:00 pm36 °FOvercast.6 mph75%29.92 "Hg30 mi
12:00 pm36 °FLow clouds.3 mph75%29.95 "Hg30 mi
11:00 am36 °FLow clouds.2 mph81%29.98 "Hg20 mi
10:00 am34 °FLow clouds.5 mph93%29.99 "Hg12 mi
9:00 am32 °FLow clouds.No wind100%29.98 "Hg8 mi
8:00 am32 °FFog.3 mph100%29.98 "Hg6 mi
7:14 am32 °FFog.3 mph100%29.98 "Hg6 mi
7:00 am32 °FOvercast.2 mph100%29.99 "Hg12 mi
6:00 am32 °FOvercast.No wind100%29.99 "Hg15 mi
5:28 am32 °FOvercast.2 mph100%30.00 "Hg15 mi
5:00 am32 °FOvercast.No wind100%30.00 "Hg15 mi
4:20 am32 °FLight snow. Overcast.2 mph100%30.01 "Hg15 mi
4:00 am34 °FOvercast.3 mph81%30.02 "Hg15 mi
3:00 am32 °FOvercast.3 mph100%30.01 "Hg15 mi
2:00 am32 °FOvercast.2 mph100%30.01 "Hg10 mi
1:00 am32 °FOvercast.No wind100%30.01 "Hg15 mi
12:00 am32 °FOvercast.No wind100%30.03 "Hg10 mi
11:00 pm
Thu, Jan 19
32 °FOvercast.No wind100%30.05 "Hg10 mi
10:00 pm34 °FFog.2 mph93%30.07 "Hg6 mi
9:00 pm34 °FFog.2 mph100%30.07 "Hg6 mi
Weather by CustomWeather, © 2017

See weather overviewHow to use our weather pages